Weather History for KMZZ - April, 2013

Change the Weather History Date:

Friday, April 26, 2013

  Actual Average (KMIE) Record (KMIE)
Temperature  
Mean Temperature 46 °F 55 °F  
Max Temperature 59 °F 66 °F 85 °F (1990)
Min Temperature 32 °F 45 °F 31 °F (1972)
Degree Days  
Heating Degree Days 20 10  
Month to date heating degree days 383  
Since 1 July heating degree days 5553  
Cooling Degree Days 0 1  
Month to date cooling degree days 9  
Year to date cooling degree days 10  
Moisture  
Dew Point 34 °F    
Average Humidity 63    
Maximum Humidity 94    
Minimum Humidity 38    
Precipitation  
Precipitation 0.00 in 0.12 in 1.14 in (2007)
Month to date precipitation 3.18  
Year to date precipitation 10.67  
Sea Level Pressure  
Sea Level Pressure 30.39 in    
Wind  
Wind Speed 4 mph (South)    
Max Wind Speed 10 mph    
Max Gust Speed -    
Visibility 10 miles    
Events      
T = Trace of Precipitation, MM = Missing Value Source: NWS Daily Summary

Daily Weather History Graph

Daily Weather History Graph

Search for Another Location

Airport or City:

Trip Planner

Search our weather history database for the weather conditions in past years. The results will help you decide how hot, cold, wet, or windy it might be!

Date:

Astronomy

Apr. 26, 2013 Rise Set
Actual Time 6:48 AM EDT 8:33 PM EDT
Civil Twilight 6:18 AM EDT 9:02 PM EDT
Nautical Twilight 5:43 AM EDT 9:38 PM EDT
Astronomical Twilight 5:05 AM EDT 10:16 PM EDT
Moon 9:55 PM EDT (4/26) 7:14 AM EDT (4/26)
Length of Visible Light 14h 43m
Length of Day
13h 45m
Full, 99% of the Moon is Illuminated
Apr 26
Full
May 2
Last Quarter
May 9
New
May 18
First Quarter
May 25
Full

Hourly Weather History & Observations

Time (EDT) Temp. Windchill Dew Point Humidity Pressure Visibility Wind Dir Wind Speed Gust Speed Precip Events Conditions
12:15 AM 37.2 °F - 31.8 °F 81% 30.37 in 10.0 mi Calm Calm - N/A   Clear
12:35 AM 36.5 °F - 31.6 °F 83% 30.37 in 10.0 mi Calm Calm - N/A   Clear
12:55 AM 36.0 °F - 31.8 °F 85% 30.37 in 10.0 mi Calm Calm - N/A   Clear
1:15 AM 34.9 °F 32.0 °F 31.3 °F 87% 30.37 in 10.0 mi ESE 3.5 mph - N/A   Clear
1:35 AM 34.3 °F - 31.5 °F 89% 30.38 in 10.0 mi Calm Calm - N/A   Clear
1:55 AM 34.7 °F - 31.6 °F 89% 30.38 in 10.0 mi Calm Calm - N/A   Clear
2:15 AM 35.2 °F - 31.8 °F 87% 30.38 in 10.0 mi Calm Calm - N/A   Clear
2:35 AM 34.5 °F - 31.3 °F 88% 30.37 in 10.0 mi Calm Calm - N/A   Clear
3:15 AM 34.7 °F - 31.5 °F 88% 30.38 in 10.0 mi Calm Calm - N/A   Clear
3:35 AM 34.2 °F - 31.5 °F 90% 30.38 in 10.0 mi Calm Calm - N/A   Clear
3:55 AM 33.6 °F - 30.9 °F 90% 30.38 in 10.0 mi Calm Calm - N/A   Clear
4:15 AM 32.9 °F 28.5 °F 30.6 °F 91% 30.38 in 10.0 mi ESE 4.6 mph - N/A   Clear
4:35 AM 32.4 °F - 30.6 °F 93% 30.38 in 10.0 mi Calm Calm - N/A   Clear
4:55 AM 32.5 °F 29.3 °F 30.9 °F 94% 30.39 in 10.0 mi SSE 3.5 mph - N/A   Clear
5:15 AM 32.9 °F - 30.6 °F 91% 30.39 in 10.0 mi Calm Calm - N/A   Clear
5:35 AM 33.1 °F 28.7 °F 30.4 °F 90% 30.40 in 10.0 mi SSE 4.6 mph - N/A   Clear
5:55 AM 34.2 °F 29.0 °F 29.7 °F 84% 30.40 in 10.0 mi South 5.8 mph - N/A   Clear
6:15 AM 34.0 °F 31.0 °F 29.1 °F 82% 30.40 in 10.0 mi SSE 3.5 mph - N/A   Clear
6:35 AM 34.5 °F 31.6 °F 29.1 °F 81% 30.41 in 10.0 mi South 3.5 mph - N/A   Clear
6:55 AM 34.3 °F - 28.6 °F 79% 30.41 in 10.0 mi Calm Calm - N/A   Clear
7:15 AM 34.0 °F 31.0 °F 28.8 °F 81% 30.41 in 10.0 mi SSE 3.5 mph - N/A   Clear
7:35 AM 35.1 °F - 29.1 °F 79% 30.42 in 10.0 mi Calm Calm - N/A   Clear
7:55 AM 36.1 °F 31.4 °F 29.7 °F 77% 30.43 in 10.0 mi SSE 5.8 mph - N/A   Clear
8:15 AM 38.1 °F 32.9 °F 30.0 °F 73% 30.43 in 10.0 mi SSE 6.9 mph - N/A   Clear
8:35 AM 40.1 °F 34.7 °F 30.9 °F 70% 30.43 in 10.0 mi SSE 8.1 mph - N/A   Clear
8:55 AM 41.7 °F 36.1 °F 31.5 °F 67% 30.43 in 10.0 mi SSE 9.2 mph - N/A   Clear
9:15 AM 43.5 °F 39.4 °F 31.8 °F 63% 30.43 in 10.0 mi SSE 6.9 mph - N/A   Clear
9:35 AM 45.0 °F 40.1 °F 32.2 °F 61% 30.44 in 7.0 mi SSE 9.2 mph - N/A   Clear
9:55 AM 46.8 °F - 32.5 °F 58% 30.43 in 10.0 mi SSE 10.4 mph - N/A   Clear
10:15 AM 47.8 °F - 32.9 °F 56% 30.42 in 10.0 mi SSE 10.4 mph - N/A   Clear
10:35 AM 48.9 °F - 32.9 °F 54% 30.43 in 10.0 mi South 8.1 mph - N/A   Clear
10:55 AM 50.0 °F - 33.4 °F 53% 30.43 in 10.0 mi South 9.2 mph - N/A   Clear
11:15 AM 50.7 °F - 33.6 °F 52% 30.44 in 10.0 mi South 8.1 mph - N/A   Clear
11:35 AM 51.3 °F - 33.4 °F 51% 30.44 in 10.0 mi South 9.2 mph - N/A   Clear
11:55 AM 52.0 °F - 33.1 °F 49% 30.43 in 10.0 mi SSE 6.9 mph - N/A   Clear
12:15 PM 52.9 °F - 33.8 °F 48% 30.44 in 10.0 mi SSW 8.1 mph - N/A   Clear
12:35 PM 53.6 °F - 33.4 °F 46% 30.44 in 10.0 mi South 4.6 mph - N/A   Clear
12:55 PM 54.1 °F - 32.9 °F 45% 30.44 in 10.0 mi South 8.1 mph - N/A   Clear
1:15 PM 54.9 °F - 33.8 °F 45% 30.44 in 10.0 mi SSW 9.2 mph - N/A   Clear
1:35 PM 55.2 °F - 34.2 °F 45% 30.42 in 10.0 mi South 8.1 mph - N/A   Clear
1:55 PM 56.1 °F - 35.4 °F 46% 30.41 in 10.0 mi SSW 6.9 mph - N/A   Clear
2:15 PM 56.3 °F - 34.2 °F 43% 30.41 in 10.0 mi South 6.9 mph - N/A   Clear
2:35 PM 56.8 °F - 34.2 °F 42% 30.40 in 10.0 mi South 5.8 mph - N/A   Clear
2:55 PM 57.0 °F - 34.0 °F 42% 30.39 in 10.0 mi SSW 6.9 mph - N/A   Clear
3:15 PM 57.6 °F - 34.2 °F 41% 30.39 in 7.0 mi South 6.9 mph - N/A   Clear
3:35 PM 58.1 °F - 35.4 °F 43% 30.39 in 10.0 mi SSW 8.1 mph - N/A   Clear
3:55 PM 58.5 °F - 35.4 °F 42% 30.38 in 10.0 mi SW 9.2 mph - N/A   Clear
4:15 PM 58.3 °F - 36.0 °F 43% 30.37 in 10.0 mi South 6.9 mph - N/A   Clear
4:35 PM 58.3 °F - 34.7 °F 41% 30.37 in 7.0 mi SSW 5.8 mph - N/A   Clear
4:55 PM 58.6 °F - 35.4 °F 42% 30.37 in 10.0 mi South 6.9 mph - N/A   Clear
5:15 PM 59.2 °F - 35.1 °F 40% 30.36 in 10.0 mi SSW 6.9 mph - N/A   Clear
5:35 PM 59.0 °F - 35.4 °F 41% 30.36 in 10.0 mi SW 6.9 mph - N/A   Clear
5:55 PM 59.0 °F - 34.9 °F 40% 30.36 in 10.0 mi South 5.8 mph - N/A   Clear
6:15 PM 59.0 °F - 34.9 °F 40% 30.36 in 10.0 mi South 9.2 mph - N/A   Clear
6:35 PM 59.4 °F - 34.7 °F 40% 30.36 in 7.0 mi South 8.1 mph - N/A   Clear
6:55 PM 59.5 °F - 33.8 °F 38% 30.35 in 10.0 mi South 8.1 mph - N/A   Clear
7:15 PM 58.8 °F - 35.1 °F 41% 30.35 in 7.0 mi South 6.9 mph - N/A   Clear
7:35 PM 58.1 °F - 35.8 °F 43% 30.35 in 10.0 mi South 6.9 mph - N/A   Clear
7:55 PM 57.6 °F - 35.8 °F 44% 30.34 in 10.0 mi SSW 5.8 mph - N/A   Clear
8:15 PM 56.1 °F - 35.6 °F 46% 30.35 in 10.0 mi South 5.8 mph - N/A   Clear
8:35 PM 54.5 °F - 37.8 °F 53% 30.35 in 7.0 mi South 3.5 mph - N/A   Clear
8:55 PM 53.8 °F - 38.3 °F 56% 30.35 in 10.0 mi South 4.6 mph - N/A   Clear
9:15 PM 52.7 °F - 38.3 °F 58% 30.35 in 10.0 mi SSE 4.6 mph - N/A   Clear
9:35 PM 51.3 °F - 38.1 °F 61% 30.35 in 10.0 mi SSE 4.6 mph - N/A   Clear
9:55 PM 49.6 °F - 39.2 °F 67% 30.35 in 10.0 mi SE 4.6 mph - N/A   Clear
10:15 PM 48.0 °F - 39.6 °F 73% 30.35 in 10.0 mi SSE 3.5 mph - N/A   Clear
10:35 PM 48.0 °F - 39.0 °F 71% 30.35 in 10.0 mi SE 4.6 mph - N/A   Clear
10:55 PM 47.8 °F - 38.3 °F 70% 30.34 in 10.0 mi SE 4.6 mph - N/A   Clear
11:15 PM 47.5 °F - 37.6 °F 69% 30.34 in 10.0 mi SE 4.6 mph - N/A   Clear
11:35 PM 47.3 °F - 37.6 °F 69% 30.34 in 10.0 mi ESE 3.5 mph - N/A   Clear
11:55 PM 46.4 °F 44.3 °F 37.6 °F 71% 30.35 in 10.0 mi SE 4.6 mph - N/A   Clear